[[{"header":{"parameterUnit":"m.s-1","parameterCategory":1,"la1":30.2992,"la2":30.254,"lo1":-89.0895,"lo2":-89.0443,"dy":0.0025,"dx":0.0025,"nx":19,"ny":19,"refTime":"2026-05-11T09:00:00:Z","depth":0,"parameterNumber":2,"parameterNumberName":"U-component_of_WINDS"},"data":[0,0,0,-3.3506,-3.3511,-3.3749,-3.3749,-3.4064,-3.4067,0,0,0,0,0,0,0,0,0,0,0,-3.3442,-3.3444,-3.3506,-3.3512,-3.3748,-3.3749,-3.4063,-3.4067,0,0,0,0,0,0,0,0,0,0,0,-3.344,-3.3443,-3.3446,-3.3513,-3.3748,-3.375,-3.4063,-3.388,0,0,0,0,0,0,0,0,0,0,-3.3649,-3.3594,-3.3443,-3.3446,-3.3514,-3.3748,-3.375,-3.3871,-3.3892,-3.3961,0,-3.4022,0,-3.4049,-3.4088,-3.409,0,0,0,-3.3509,-3.3577,-3.3635,-3.3447,-3.3516,-3.3748,-3.3641,-3.3883,-3.3906,-3.3988,-3.4027,-3.4038,-3.4055,-3.409,-3.4092,-3.4498,-3.45,0,0,-3.3496,-3.3488,-3.3619,-3.365,-3.3613,-3.3633,-3.3648,-3.3896,-3.3939,-3.4028,-3.4045,-3.406,-3.4093,-3.4095,-3.4496,-3.4498,0,0,0,-3.346,-3.3479,-3.3531,-3.3638,-3.3679,-3.364,-3.3657,-3.3928,-3.3945,-3.4049,-3.4063,-3.4094,-3.4098,-3.4493,-3.4497,-3.4591,0,0,0,-3.3452,-3.3458,-3.3526,-3.3523,-3.3675,-3.3806,-3.3684,-3.3928,-3.3957,-3.4062,-3.4095,-3.4102,-3.4491,-3.4495,-3.4583,-3.4638,0,0,0,-3.3424,-3.3455,-3.3491,-3.3522,-3.3623,-3.3803,-3.3834,-3.3935,-3.3966,-3.409,-3.4102,-3.449,-3.4494,-3.4577,-3.4627,-3.4743,0,0,0,-3.3393,-3.3572,-3.3492,-3.3697,-3.3621,-3.3857,-3.3833,-3.4009,-3.4127,-3.4096,-3.4492,-3.4496,-3.4575,-3.462,-3.4736,-3.4841,-3.4883,0,0,-3.3615,-3.3598,-3.372,-3.3655,-3.3903,-3.3822,-3.4085,-3.4201,-3.422,-3.4404,-3.4414,-3.4586,-3.4626,-3.4742,-3.5119,-3.5152,0,0,0,-3.3788,-3.3875,-3.3942,-3.4052,-3.4143,-3.4226,-3.4301,-3.4344,-3.45,-3.4313,-3.4658,-3.4682,-3.475,-3.4801,-3.483,-3.489,-3.4519,-3.4518,-3.4518,-3.4093,-3.4106,-3.4308,-3.435,-3.4456,-3.4531,-3.462,-3.469,-3.4674,-3.4755,-3.4811,-3.5038,-3.5097,-3.5118,-3.5181,-3.4865,-3.4866,-3.4866,-3.4866,-3.4421,-3.4548,-3.4518,-3.4704,-3.4717,-3.4874,-3.4952,-3.4935,-3.5084,-3.4997,-3.5058,-3.4964,-3.5155,-3.521,-3.4873,-3.4872,-3.4871,-3.4871,-3.487,-3.4625,-3.4688,-3.4734,-3.4893,-3.5015,-3.505,-3.5194,-3.52,-3.5208,-3.5268,-3.5328,-3.5327,-3.5328,-3.5295,-3.5296,-3.5297,-3.5297,-3.5298,-3.5299,-3.482,-3.4868,-3.4988,-3.5097,-3.5168,-3.5262,-3.5336,-3.5407,-3.5487,-3.5481,-3.5482,-3.5459,-3.5169,-3.5098,-3.5311,-3.5309,-3.5307,-3.5306,-3.5305,-3.5153,-3.5077,-3.5262,-3.5333,-3.5461,-3.5581,-3.5586,-3.5729,-3.5787,-3.5858,-3.5821,-3.5605,-3.559,-3.5567,-3.5509,-3.5816,-3.5815,-3.5816,-3.5816,-3.5327,-3.5318,-3.5508,-3.562,-3.5731,-3.5753,-3.5963,-3.6022,-3.6072,-3.6109,-3.6065,-3.5986,-3.5963,-3.5962,-3.5931,-3.5877,-3.627,-3.6271,-3.6271,-3.5534,-3.5535,-3.5713,-3.5757,-3.5857,-3.5944,-3.6141,-3.6273,-3.6314,-3.629,-3.6139,-3.612,-3.5994,-3.5951,-3.5928,-3.5879,-3.578,0,0]},{"header":{"parameterUnit":"m.s-1","parameterCategory":1,"la1":30.2992,"la2":30.254,"lo1":-89.0895,"lo2":-89.0443,"dy":0.0025,"dx":0.0025,"nx":19,"ny":19,"refTime":"2026-05-11T09:00:00:Z","depth":0,"parameterNumber":3,"parameterNumberName":"V-component_of_WINDS"},"data":[0,0,0,-2.5448,-2.5449,-2.5512,-2.5512,-2.5612,-2.5613,0,0,0,0,0,0,0,0,0,0,0,-2.5439,-2.544,-2.5448,-2.545,-2.5512,-2.5512,-2.5612,-2.5613,0,0,0,0,0,0,0,0,0,0,0,-2.5439,-2.544,-2.5441,-2.545,-2.5512,-2.5512,-2.5611,-2.5558,0,0,0,0,0,0,0,0,0,0,-2.5494,-2.5495,-2.544,-2.5441,-2.545,-2.5512,-2.5512,-2.5555,-2.5561,-2.5591,0,-2.5619,0,-2.5617,-2.5621,-2.5621,0,0,0,-2.5443,-2.549,-2.5498,-2.5441,-2.5451,-2.5512,-2.5482,-2.5558,-2.5565,-2.56,-2.562,-2.5623,-2.5619,-2.5621,-2.5622,-2.5813,-2.5814,0,0,-2.544,-2.5456,-2.5493,-2.5503,-2.5491,-2.548,-2.5484,-2.5562,-2.5586,-2.562,-2.5625,-2.5621,-2.5622,-2.5623,-2.5812,-2.5813,0,0,0,-2.5434,-2.5454,-2.546,-2.5499,-2.5508,-2.5482,-2.5486,-2.5583,-2.5583,-2.5626,-2.5622,-2.5623,-2.5624,-2.581,-2.5812,-2.5887,0,0,0,-2.5432,-2.5451,-2.5458,-2.5469,-2.5507,-2.5546,-2.5506,-2.5578,-2.5586,-2.5621,-2.5623,-2.5625,-2.5809,-2.5811,-2.5882,-2.592,0,0,0,-2.5432,-2.5451,-2.5463,-2.547,-2.5497,-2.5544,-2.5549,-2.5579,-2.5584,-2.5621,-2.5626,-2.5808,-2.5811,-2.5878,-2.5913,-2.5976,0,0,0,-2.5438,-2.553,-2.5464,-2.5566,-2.5497,-2.5589,-2.5548,-2.5616,-2.5657,-2.5623,-2.5809,-2.5812,-2.5876,-2.5908,-2.5971,-2.6032,-2.6058,0,0,-2.5563,-2.5545,-2.5604,-2.5547,-2.5655,-2.5578,-2.5698,-2.5721,-2.5711,-2.578,-2.5784,-2.5884,-2.5912,-2.5975,-2.62,-2.6221,0,0,0,-2.5649,-2.5691,-2.5716,-2.5755,-2.5773,-2.5793,-2.5795,-2.5803,-2.5861,-2.5749,-2.5922,-2.5939,-2.5975,-2.6003,-2.6021,-2.6052,-2.5825,-2.5825,-2.5825,-2.5852,-2.5831,-2.5927,-2.5914,-2.5953,-2.5954,-2.5984,-2.5996,-2.5966,-2.6007,-2.6028,-2.6167,-2.62,-2.6214,-2.6246,-2.6058,-2.6058,-2.6058,-2.6058,-2.6034,-2.6091,-2.6047,-2.6124,-2.6103,-2.6169,-2.6174,-2.615,-2.621,-2.6149,-2.618,-2.6117,-2.6238,-2.6265,-2.6064,-2.6063,-2.6062,-2.6062,-2.6061,-2.6166,-2.6189,-2.6197,-2.625,-2.6295,-2.628,-2.6338,-2.6317,-2.6298,-2.6329,-2.6349,-2.6348,-2.6345,-2.6339,-2.634,-2.634,-2.6341,-2.6341,-2.6341,-2.6299,-2.6305,-2.6355,-2.6382,-2.6404,-2.6431,-2.6434,-2.6456,-2.6475,-2.6456,-2.6456,-2.6423,-2.6252,-2.6211,-2.6349,-2.6348,-2.6347,-2.6346,-2.6345,-2.6493,-2.6446,-2.6524,-2.6546,-2.6576,-2.6623,-2.6594,-2.6642,-2.6657,-2.6687,-2.6647,-2.6524,-2.6505,-2.6491,-2.6456,-2.665,-2.665,-2.665,-2.665,-2.6605,-2.6592,-2.6667,-2.6705,-2.6739,-2.6721,-2.6813,-2.6816,-2.6812,-2.6821,-2.679,-2.6742,-2.6728,-2.6718,-2.6698,-2.6666,-2.6908,-2.6909,-2.6909,-2.6724,-2.6713,-2.6794,-2.6788,-2.681,-2.683,-2.6916,-2.6962,-2.6949,-2.6919,-2.6828,-2.6817,-2.6739,-2.6715,-2.6684,-2.6654,-2.6594,0,0]}]]